DW1410 Weather Reports


time (UTC)temp
F
wind
direction
speed
knots
gust
knots
rain 1hr
in
rain 24hr
in
rain mn
in
humidity
%
barometer
mb
20260506123100 53 230 1.7 7.8 0.00 0.00 0.00 29 1012.1
20260506121601 51 208 1.7 8.7 0.00 0.00 0.00 29 1012.1
20260506120110 51 288 2.6 7.0 0.00 0.00 0.00 27 1012.0
20260506120004 51 321 3.5 7.0 0.00 0.00 0.00 28 1012.0
20260506114600 50 227 4.3 9.6 0.00 0.00 0.00 27 1012.1
20260506113100 51 321 4.3 8.7 0.00 0.00 0.00 27 1012.1
20260506111559 52 263 1.7 7.8 0.00 0.00 0.00 30 1012.1
20260506110114 52 126 1.7 7.0 0.00 0.00 0.00 32 1011.9
20260506110002 52 309 1.7 7.0 0.00 0.00 0.00 30 1011.9
20260506104614 52 225 1.7 5.2 0.00 0.00 0.00 32 1011.8
20260506103100 52 277 2.6 7.8 0.00 0.00 0.00 34 1011.8
20260506103003 52 285 2.6 7.8 0.00 0.00 0.00 34 1011.8
20260506101600 51 318 1.7 8.7 0.00 0.00 0.00 34 1011.8
20260506100113 51 273 1.7 7.0 0.00 0.00 0.00 36 1011.9
20260506100005 51 257 1.7 7.0 0.00 0.00 0.00 36 1011.8
20260506094604 50 252 1.7 7.8 0.00 0.00 0.00 38 1011.6
20260506093102 47 281 1.7 3.5 0.00 0.00 0.00 43 1011.5
20260506091607 48 305 2.6 7.8 0.00 0.00 0.00 43 1011.5
20260506090105 52 295 0.9 8.7 0.00 0.00 0.00 43 1011.4
20260506090002 51 317 1.7 8.7 0.00 0.00 0.00 43 1011.3
20260506084634 49 75 0.9 7.8 0.00 0.00 0.00 45 1011.3
20260506083100 48 39 3.5 7.0 0.00 0.00 0.00 45 1011.3
20260506081602 47 268 3.5 7.8 0.00 0.00 0.00 47 1011.2
20260506073101 49 319 1.7 6.1 0.00 0.00 0.00 47 1010.9
20260506071600 47 322 2.6 7.0 0.00 0.00 0.00 47 1010.7
20260506061601 45 336 2.6 5.2 0.00 0.00 0.00 57 1010.5
20260506044602 38 233 0.9 1.7 0.00 0.00 0.00 84 1009.9
20260506043100 37 233 0.0 1.7 0.00 0.00 0.00 86 1009.7
20260506041609 36 233 0.0 0.9 0.00 0.00 0.00 88 1009.6
20260506040101 34 233 0.0 0.9 0.00 0.00 0.00 90 1009.5
20260506040002 34 233 0.0 0.9 0.00 0.00 0.00 90 1009.5
20260506034601 32 233 0.0 0.0 0.00 0.00 0.00 94 1009.2
20260506033101 30 233 0.0 0.9 0.00 0.00 0.00 96 1009.1
20260506031600 28 233 0.0 0.9 0.00 0.00 0.00 95 1008.8
20260506030002 28 233 0.0 0.0 0.00 0.00 0.00 95 1008.7
20260506024605 28 233 0.0 0.0 0.00 0.00 0.00 95 1008.5
20260506023109 28 233 0.0 0.0 0.00 0.00 0.00 94 1008.5
20260506021622 27 233 0.0 0.9 0.00 0.00 0.00 94 1008.5
20260506020100 27 233 0.0 0.9 0.00 0.00 0.00 94 1008.4
20260506020003 27 233 0.0 0.9 0.00 0.00 0.00 94 1008.4
20260506014600 27 233 0.0 0.0 0.00 0.00 0.00 94 1008.4
20260506013110 27 233 0.0 0.0 0.00 0.00 0.00 93 1008.2
20260506011617 28 233 0.0 0.0 0.00 0.00 0.00 93 1008.1
20260506010003 28 233 0.0 0.0 0.00 0.00 0.00 92 1007.8
20260506004600 28 233 0.0 0.0 0.00 0.00 0.00 92 1007.7
20260506003100 28 233 0.0 0.0 0.00 0.00 0.00 91 1007.7
20260506001603 28 233 0.0 0.0 0.00 0.00 0.00 91 1007.6
20260506000002 29 233 0.0 0.0 0.00 0.00 0.00 91 1007.6
20260505234600 29 233 0.0 1.7 0.00 0.00 0.00 91 1007.4
20260505233106 29 281 0.0 1.7 0.00 0.00 0.00 91 1007.3
20260505231613 29 281 0.0 0.9 0.00 0.00 0.00 90 1007.3
20260505230100 29 281 0.0 0.0 0.00 0.00 0.00 90 1007.3
20260505230002 29 281 0.0 0.0 0.00 0.00 0.00 90 1007.3
20260505224604 29 281 0.0 0.0 0.00 0.00 0.00 89 1007.3
20260505223100 29 281 0.0 0.0 0.00 0.00 0.00 88 1007.2
20260505221604 30 281 0.0 0.0 0.00 0.00 0.00 87 1007.2
20260505220000 30 281 0.0 0.0 0.00 0.00 0.00 86 1007.1
20260505214600 30 281 0.0 0.0 0.00 0.00 0.00 86 1007.1
20260505213059 31 281 0.0 0.0 0.00 0.00 0.00 85 1007.0
20260505211559 31 281 0.0 0.9 0.00 0.00 0.00 84 1006.9
20260505210059 31 281 0.0 0.0 0.00 0.00 0.00 84 1007.0
20260505210004 31 281 0.0 0.0 0.00 0.00 0.00 83 1006.9
20260505204559 32 281 0.0 0.0 0.00 0.00 0.00 82 1006.7
20260505203121 33 281 0.0 0.0 0.00 0.00 0.00 80 1006.6
20260505201604 34 281 0.0 0.0 0.00 0.00 0.00 80 1006.6
20260505200059 34 281 0.0 0.0 0.00 0.00 0.00 78 1006.4
20260505200002 34 281 0.0 0.0 0.00 0.00 0.00 78 1006.4
20260505194559 35 281 0.0 0.0 0.00 0.03 0.00 77 1006.3
20260505193059 36 281 0.0 0.0 0.00 0.03 0.00 75 1006.2
20260505191611 37 281 0.0 0.0 0.00 0.03 0.00 73 1006.1
20260505190001 38 281 0.0 0.0 0.00 0.03 0.00 71 1006.0
20260505184559 40 281 0.0 0.9 0.00 0.03 0.00 68 1006.0
20260505183101 40 281 0.0 1.7 0.00 0.03 0.00 66 1005.7
20260505181559 41 275 0.0 3.5 0.00 0.03 0.00 65 1005.6
20260505180001 42 275 0.9 2.6 0.00 0.03 0.00 64 1005.4
20260505174605 43 259 1.7 7.0 0.00 0.03 0.00 62 1005.3
20260505173100 43 269 1.7 4.3 0.00 0.03 0.00 60 1005.2
20260505171559 44 253 0.9 5.2 0.00 0.03 0.00 61 1005.1
20260505170111 44 233 0.9 5.2 0.00 0.03 0.00 59 1005.0
20260505170001 44 248 0.0 5.2 0.00 0.03 0.00 59 1005.0
20260505164559 44 234 0.9 7.0 0.00 0.03 0.00 59 1005.0
20260505163102 44 306 1.7 7.0 0.00 0.03 0.00 57 1004.9
20260505161503 44 250 0.9 9.6 0.00 0.03 0.00 55 1004.8
20260505153003 46 255 1.7 6.1 0.00 0.03 0.00 54 1004.4
20260505151502 47 271 1.7 7.8 0.00 0.03 0.00 54 1004.5
20260505124503 49 199 2.6 8.7 0.00 0.03 0.00 53 1003.7